sat.trackr.live / text

‹ back to catalog

NINGXIA-1 9

NORAD 49021 · 2021-064D

PAYLOAD ACTIVE UNKNOWN

§ Identity

Operator
Country
PRC
Launch date
2021-07-09
Launch site
TAISC
Launch vehicle
Mass (kg)
RCS (m²)

External: N2YO · Heavens-Above · Gunter

§ Orbital elements

Epoch: 2026-09-20T21:54:10.724832Z

Period
102.23 min
Inclination
45.0014°
Eccentricity
0.0009092
Mean motion
14.08522155 rev/d
Perigee alt
857.8 km
Apogee alt
871.0 km
Semi-major
7,242.6 km
B*
6.7847e-5
RAAN
154.5283°
Arg perigee
347.3262°
Mean anomaly
12.7345°
Rev number
26,772

§ Raw data

NINGXIA-1 91 49021U 21064D   26263.91262413 -.00000015  00000+0  67847-4 0  99982 49021  45.0014 154.5283 0009092 347.3262  12.7345 14.08522155267726

JSON: /api/v1/satellites/49021 · /tle

For live sub-satellite position, see the globe view (requires WebGL).

§ Visibility from observer

Set your observer location to see the next 7 days of passes ≥ 10°. The values pass through the URL so the page stays shareable.

No JS? Fill the form by hand. The geolocation button needs JavaScript.